Skip Page Navigation
NASA JPL Caltech
NASA Logo - Jet Propulsion Laboratory + View the NASA Portal
+ Center for Near-Earth Object Studies
JPL Home Earth Solar System Stars & Galaxies Technology
JPL Solar System Dynamics
BODIES ORBITS EPHEMERIDES TOOLS PHYSICAL DATA DISCOVERY FAQ SITE MAP
JPL Small-Body Database Browser
Search: [ help ]  
(2015 KJ153)
Classification: Centaur          SPK-ID: 3721165
Ephemeris | Orbit Diagram | Orbital Elements | Mission Design | Physical Parameters | Close-Approach Data ]

[ show orbit diagram ]
Orbital Elements at Epoch 2459000.5 (2020-May-31.0) TDB
Reference: JPL 8 (heliocentric ecliptic J2000)
 Element Value Uncertainty (1-sigma)   Units 
e .578592329450804 3.6551e-06  
a 6.359088516661941 5.9753e-05 au
q 2.679768678622651 2.6192e-06 au
i 17.92496121882154 1.3095e-05 deg
node 120.7989853854697 3.6367e-05 deg
peri 150.7052704153134 0.00018372 deg
M 107.1065421340961 0.0015449 deg
tp 2457257.873836633421
(2015-Aug-23.37383663)
0.0007696 TDB
period 5857.209151860582
16.04
0.082555
0.000226
d
yr
n .06146271896157978 8.6629e-07 deg/d
Q 10.03840835470123 9.4325e-05 au
  Orbit Determination Parameters
   # obs. used (total)      74  
   data-arc span      547 days (1.50 yr)  
   first obs. used      2015-03-28  
   last obs. used      2016-09-25  
   planetary ephem.      DE431  
   SB-pert. ephem.      SB431-N16  
   condition code      3  
   norm. resid. RMS      .50166  
   source      ORB  
   producer      Otto Matic  
   solution date      2017-Apr-06 19:16:38  

Additional Information
 Earth MOID = 1.67987 au 
 Jupiter MOID = .910739 au 
 T_jup = 2.534 
[ show covariance matrix ]

Ephemeris | Orbit Diagram | Orbital Elements | Mission Design | Physical Parameters | Close-Approach Data ]

Physical Parameter Table
Parameter Symbol Value Units Sigma Reference Notes
absolute magnitude H 16.0   n/a MPO394236  

[ show close-approach data ]
Ephemeris | Orbit Diagram | Orbital Elements | Mission Design | Physical Parameters | Close-Approach Data ]
ABOUT SSD CREDITS/AWARDS PRIVACY/COPYRIGHT GLOSSARY LINKS
FirstGov 2020-Aug-11 20:25 UT
(server date/time)  
NASA Home Page
Site Manager:   Ryan S. Park
Webmaster  Alan B. Chamberlin